Location: Arrodets-la-Barthe
(43.0306°N, 0.2829°E)
Time: 18:45:52
(UTC+00:00)

Cosmos 2251 Rocket - Pass Details

Date: 24 October 2021
Orbit: 765 x 791 km, 74.0° (Epoch: 01 December)

Event Time Altitude Azimuth Distance (km) Brightness Sun altitude
Rises 18:11:09 0° 345° (NNW) 3,250 6.9 -13.3°
Reaches altitude 10° 18:13:38 10° 351° (N) 2,316 6.1 -13.7°
Maximum altitude 18:18:40 45° 64° (ENE) 1,037 3.8 -14.6°
Enters shadow 18:23:30 11° 137° (SE) 2,236 5.5 -15.5°
